Regional Weather Roundup
Issued by NWS Jackson, KY

Home | Current Version | Previous Version | Text Only | Print | Product List | Glossary Off
Versions: 1 2 3 4 5 6 7 8 9 10 11 12 13 14 15 16 17 18 19 20 21 22 23 24 25 26 27 28 29 30 31 32 33 34 35 36 37 38 39 40 41 42 43 44 45 46 47 48 49 50

458
ASUS43 KJKL 280510
RWRJKL

EAST KENTUCKY HOURLY WEATHER ROUNDUP
NATIONAL WEATHER SERVICE JACKSON KY
100 AM EDT WED SEP 28 2016

NOTE: "FAIR" INDICATES FEW OR NO CLOUDS BELOW 12,000 FEET WITH
NO SIGNIFICANT WEATHER AND/OR OBSTRUCTIONS TO VISIBILITY.

* THESE REPORTS ARE NOT UNDER NWS QUALITY CONTROL AND MAY NOT
  REPORT WEATHER SUCH AS PRECIPITATION AND FOG.

KYZ079-080-083-085-087-088-110-112-115-119-120-280600
...EASTERN KENTUCKY...

CITY           SKY/WX    TMP DP  RH WIND       PRES   REMARKS
JACKSON        CLEAR     56  47  71 CALM      29.95S
LONDON         CLEAR     50  46  86 CALM      29.96S
SOMERSET*      CLEAR     48  48 100 CALM      29.97S
MONTICELLO*    CLEAR     49  47  93 W7        29.98S
WILLIAMSBURG*  CLEAR     48  48 100 CALM      29.97S
MIDDLESBORO*   CLEAR     49  48  97 CALM      29.98F
HARLAN APT*    PTCLDY    50  46  87 CALM      29.98F
MOREHEAD APT*  CLEAR     57  45  62 CALM      29.95S
ASHLAND*       CLEAR     52  46  82 CALM      29.91S
$$

KYZ035-036-041-042-044-050-067-078-099-280600
...CENTRAL KENTUCKY...

CITY           SKY/WX    TMP DP  RH WIND       PRES   REMARKS
MT STERLING*   CLEAR     54  46  76 SW5       29.95S
FLEMING/MASON* CLEAR     57  42  58 S8        29.93S
DANVILLE*      CLEAR     50  46  87 S5        29.95S
LEXINGTON      CLEAR     57  44  62 S7        29.93S
FRANKFORT      CLEAR     56  45  66 S5        29.90F
LOUISVILLE     CLEAR     61  48  62 E6        29.89S
LEBANON*         N/A     59  46  63 S6        29.93S
GLASGOW*       CLEAR     51  51 100 CALM      29.94S
BOWLING GREEN  CLEAR     60  48  64 CALM      29.93F
$$

KYZ091>093-OHZ055-061-077-WVZ005-015-034-035-042-280600
...SOUTHERN OHIO/WEST VIRGINIA...

CITY           SKY/WX    TMP DP  RH WIND       PRES   REMARKS
COVINGTON      CLEAR     58  48  69 S8        29.88S
COLUMBUS       MOCLDY    61  45  55 SE3       29.87S
DAYTON         CLEAR     59  47  64 S10       29.86F
WILMINGTON     PTCLDY    57  47  69 S6        29.88S
HUNTINGTON     CLEAR     52  46  80 CALM      29.92S
CHARLESTON     CLEAR     50  47  89 CALM      29.94S
PINEVILLE*     CLEAR     48  45  90 MISG      30.03S
BECKLEY        CLEAR     50  41  71 CALM      29.99F
BLUEFIELD      CLEAR     55  41  59 SW3       30.00S
LOGAN CO APT*    N/A     55  50  82 CALM      29.95S
$$

VAZ002-007-008-TNZ017-027-036-066-071-280600
...SOUTHWEST VIRGINIA/EAST TENNESSEE...

CITY           SKY/WX    TMP DP  RH WIND       PRES   REMARKS
WISE*          PTCLDY    55  36  47 CALM      30.01S
JONESVILLE*      N/A     48  46  93 CALM      29.99S
ABINGDON*      CLEAR     59  58  99 CALM      29.97F
BRISTOL        PTCLDY    57  57 100 CALM      29.95F
MORRISTOWN*    MOCLDY    57  54  88 CALM      29.94F
SEVIERVILLE*   CLEAR     61  61 100 CALM      29.94S
KNOXVILLE      MOCLDY    66  55  67 CALM      29.94S
OAK RIDGE      PTCLDY    57  51  80 CALM      29.96S
CROSSVILLE     CLEAR     49  44  83 CALM      29.99S
NASHVILLE      CLEAR     55  49  80 S5        29.95F
$$

...KEY TO REMARKS...
VSB - VISIBILITY IN MILES
WCI - WIND CHILL INDEX
HX  - HEAT INDEX

$$




USA.gov is the U.S. government's official web portal to all federal, state and local government web resources and services.